Overview Statistics Trail Chart Weather Telemetry Raw packets
 

This is the latest recevied weather packets stored in our database for station/object NW5W-12. If no packets are shown the sender has not sent any weather packets the latest 10 day(s).

<< 99 100 101 102 103 104 105 >>
Time Temp. Humidity Pressure Rain* Wind** Luminosity Snow
1787960940 23.33° C 45% 1020.2 hPa 0 mm - - -
1787960639 23.33° C 46% 1020.2 hPa 0 mm - - -
1787960339 22.78° C 47% 1020.3 hPa 0 mm - - -
1787960040 22.78° C 47% 1020.4 hPa 0 mm - - -
1787959740 22.78° C 48% 1020.4 hPa 0 mm - - -
1787959440 22.22° C 50% 1020.4 hPa 0 mm - - -
1787959140 21.67° C 53% 1020.4 hPa 0 mm - - -
1787958840 20.56° C 57% 1020.6 hPa 0 mm - - -
1787958540 21.11° C 55% 1020.8 hPa 0 mm - - -
1787958239 22.22° C 51% 1020.9 hPa 0 mm - - -
1787957940 23.89° C 45% 1020.7 hPa 0 mm - - -
1787957639 23.89° C 38% 1020.9 hPa 0 mm - - -
1787957340 23.89° C 38% 1020.8 hPa 0 mm - - -
1787957040 24.44° C 37% 1020.9 hPa 0 mm - - -
1787956740 25° C 36% 1021.1 hPa 0 mm - - -
1787956440 25.56° C 34% 1020.8 hPa 0 mm - - -
1787956140 25.56° C 32% 1020.9 hPa 0 mm - - -
1787955840 26.11° C 31% 1020.7 hPa 0 mm - - -
1787955540 26.11° C 31% 1020.3 hPa 0 mm - - -
1787955240 26.67° C 29% 1020.2 hPa 0 mm - - -
1787954940 27.22° C 29% 1020.2 hPa 0 mm - - -
1787954639 27.78° C 30% 1020.2 hPa 0 mm - - -
1787954340 28.33° C 28% 1020.2 hPa 0 mm - - -
1787954040 28.89° C 28% 1020.3 hPa 0 mm - - -
1787953740 28.89° C 28% 1020.3 hPa 0 mm - - -

* Rain since midnight (hover to see other rain measurements)
** Current wind speed in m/s (hover to see current wind gust speed)